Wind_Speed
29 31 32 34 36 38 40 42 43 45 46 48 50 53 55 59 61 63 64 66 67 69 72 76 81 86 91 96 101 106 111 114 116 111 104 98 93 90 87 86 86 84 80
29 31 33 35 37 39 41 43 44 46 48 50 52 55 58 61 63 64 65 66 69 73 77 82 87 93 98 103 107 111 112 111 109 104 94 87 81 78 76 75 74 73 69
30 32 34 36 38 40 42 44 46 48 50 52 55 58 61 62 63 64 66 69 73 78 84 89 94 99 104 108 111 111 108 103 98 93 86 78 72 69 67 64 61 58 55
31 33 35 38 40 42 43 45 47 49 52 55 58 60 62 62 64 66 69 73 79 84 90 95 101 105 109 111 110 106 100 93 87 83 77 70 64 60 57 52 46 43 42
33 35 37 39 41 43 45 47 48 51 55 58 60 61 62 63 66 69 73 79 84 90 95 101 106 109 110 109 104 98 90 84 78 73 68 61 54 48 44 39 36 33 33
34 36 38 40 42 44 46 48 51 54 57 59 61 61 63 65 69 74 79 84 90 96 101 105 108 108 105 99 92 86 80 75 70 64 57 50 43 39 35 33 32 29 28
35 37 39 41 43 45 47 50 53 56 58 60 61 62 65 69 74 79 84 90 95 101 105 107 107 103 96 89 82 75 68 63 58 53 46 41 37 34 32 29 27 26 27
36 38 40 43 44 46 49 52 55 57 58 59 61 64 68 73 79 84 89 94 100 104 106 105 101 93 86 80 73 65 57 50 46 41 38 35 33 31 29 26 24 23 26
37 40 41 43 45 48 51 54 56 57 58 60 64 68 73 78 83 89 94 99 102 104 102 98 92 84 77 71 63 54 46 39 35 33 32 31 30 29 28 25 24 24 23
38 40 41 44 47 50 53 55 55 57 59 62 67 72 77 83 88 94 99 102 103 101 94 87 81 75 67 59 52 44 36 30 27 26 27 27 27 26 27 27 25 24 23
38 40 43 45 49 52 53 54 55 57 61 65 70 76 82 87 93 98 102 103 100 94 85 77 70 63 56 48 42 35 30 25 22 21 21 22 22 24 25 26 27 27 24
39 41 44 47 50 52 52 54 56 59 64 68 74 79 85 91 96 100 101 99 93 85 76 68 60 52 45 39 33 28 25 21 20 20 20 20 21 22 23 25 26 27 27
40 43 46 49 50 51 53 55 58 63 67 72 77 82 87 93 98 100 97 90 83 75 67 58 50 43 36 31 27 23 20 19 19 19 20 21 21 22 22 23 24 26 27
42 45 47 48 50 51 54 57 62 66 71 76 81 85 90 95 98 96 89 81 73 65 56 47 40 34 30 26 22 20 20 19 18 19 20 21 22 22 22 22 22 22 23
43 45 47 48 50 52 56 61 65 70 76 80 85 90 94 96 95 90 81 73 64 55 46 38 31 27 25 24 22 21 20 20 21 21 21 22 22 23 22 22 21 21 20
44 45 47 49 51 54 59 64 69 74 79 84 89 93 96 94 88 79 71 64 55 46 37 30 25 23 21 20 20 20 21 21 21 22 22 22 22 22 22 22 21 20 18
44 46 48 50 53 57 61 66 71 76 82 87 91 94 92 86 79 71 63 54 46 37 30 25 22 20 20 19 20 20 21 21 21 21 22 22 22 22 22 21 20 20 18
44 46 49 52 56 60 65 70 74 78 83 88 91 91 85 78 71 64 54 45 36 30 25 21 19 19 19 19 20 21 21 21 22 22 22 22 22 22 21 21 20 18 17
45 47 51 54 59 64 69 73 77 82 86 89 88 83 76 69 63 55 45 36 28 23 19 18 18 18 19 20 21 21 22 22 22 22 22 22 22 21 20 20 20 18 16
46 49 53 58 62 67 72 76 80 84 87 87 82 75 67 60 52 43 34 26 21 17 16 16 17 18 19 21 22 22 23 23 23 23 23 23 22 21 20 19 18 17 14
48 52 57 61 66 70 74 78 83 86 86 80 74 68 60 51 42 32 23 18 15 14 14 15 17 18 20 21 22 23 23 24 24 24 24 23 22 21 19 18 17 16 13
51 56 60 65 69 73 77 81 85 85 80 73 66 59 51 43 32 22 16 13 12 12 13 15 16 18 20 21 22 23 24 25 25 25 24 23 22 20 19 18 16 14 12
55 59 64 68 72 76 80 83 83 79 72 65 58 49 42 32 23 15 11 10 10 11 13 15 17 19 21 22 23 24 25 25 25 24 23 22 21 20 19 18 15 13 11
58 63 67 71 74 78 82 82 78 71 65 57 49 41 32 23 15 10 8 8 8 11 13 15 17 19 21 23 24 25 26 26 26 24 23 22 21 21 20 18 16 13 10
62 66 70 73 77 80 81 77 71 64 57 49 41 33 23 14 8 5 5 6 8 10 13 15 17 20 22 23 24 25 27 27 26 25 25 24 23 22 20 19 16 13 10
65 69 72 76 79 80 77 71 64 57 50 42 33 23 13 6 2 4 5 7 9 11 13 15 18 20 22 23 24 26 26 27 27 27 26 25 24 23 22 20 17 14 11
Wind_Direction
274 278 282 285 288 289 291 293 295 297 298 299 300 301 303 304 305 306 306 307 307 308 308 309 309 309 309 309 309 309 309 308 307 306 305 302 299 296 295 293 292 292 291
277 281 284 287 289 290 292 295 297 298 300 301 302 304 305 306 307 307 308 308 309 309 310 310 311 311 311 311 310 310 309 308 307 306 305 302 300 297 295 293 292 293 292
280 283 286 288 290 292 294 297 299 300 301 303 304 306 307 307 307 308 309 310 311 311 312 312 312 312 312 312 311 311 310 308 306 305 305 304 302 300 297 296 295 294 294
282 285 287 289 291 294 297 299 300 301 303 305 306 307 307 308 308 309 311 312 312 313 313 313 313 314 313 313 312 311 310 308 307 306 306 306 305 302 301 300 299 297 296
284 287 289 291 294 296 298 299 301 303 305 306 307 308 308 309 310 311 312 313 314 314 314 315 315 315 314 314 313 312 310 309 308 308 308 308 307 306 305 305 305 302 299
286 288 290 293 296 298 299 300 303 305 306 308 308 309 309 311 312 313 314 315 315 316 316 316 316 316 315 314 313 312 311 310 310 309 310 310 311 311 312 313 311 309 302
287 290 292 295 297 298 300 302 304 306 308 308 309 310 311 312 313 314 315 316 317 317 317 317 317 317 315 314 313 313 312 310 310 311 312 313 314 316 318 319 318 316 311
289 291 294 296 297 300 302 304 306 307 308 309 310 311 312 314 315 316 317 318 318 318 318 318 318 317 316 315 315 315 314 313 312 312 313 316 319 322 325 328 328 325 319
290 293 294 296 299 301 303 305 307 308 309 310 312 313 314 315 316 317 318 319 319 320 320 319 318 317 317 316 317 317 318 316 315 315 317 321 324 327 330 333 333 332 329
291 293 295 298 300 302 304 306 307 309 310 312 313 314 316 317 318 319 319 320 320 320 320 320 318 318 318 318 318 320 321 320 318 317 319 323 327 331 334 337 340 341 338
292 294 296 298 301 304 306 307 309 310 312 313 315 317 318 319 320 321 321 321 322 322 322 321 320 319 319 319 321 323 325 325 324 325 327 330 333 336 338 338 340 342 344
293 295 298 300 303 305 307 308 310 311 313 315 317 318 319 320 321 322 322 323 323 323 323 322 322 321 322 322 324 327 328 329 331 332 335 336 337 338 338 337 338 340 344
295 297 300 303 305 307 308 310 311 313 315 317 318 319 320 321 322 323 323 323 323 323 324 324 324 324 325 326 328 331 333 334 336 337 337 338 338 339 339 340 340 341 343
297 300 303 305 307 309 310 312 313 315 317 318 319 320 321 322 323 324 324 324 323 324 324 324 325 326 328 332 335 338 339 340 341 340 339 339 338 338 339 340 343 344 346
299 302 305 307 309 311 312 314 316 317 318 319 321 322 323 323 324 325 325 325 325 325 326 326 327 329 332 335 338 341 343 343 342 341 340 338 338 337 338 340 342 345 347
302 305 307 309 311 313 315 317 318 319 320 321 322 323 324 325 325 325 326 325 326 327 328 329 331 334 337 339 340 341 342 342 341 340 339 338 338 337 337 337 338 342 346
305 307 309 311 313 314 316 318 319 321 322 323 323 324 325 325 325 326 326 326 327 328 331 334 336 340 342 343 343 343 342 342 343 343 343 342 341 340 339 338 338 339 342
307 309 311 313 314 316 318 319 321 322 323 323 324 325 326 325 325 326 327 328 328 330 334 338 341 343 345 346 346 345 345 345 344 344 344 344 343 343 344 344 342 341 341
309 311 313 315 316 318 319 321 322 323 324 324 325 326 326 326 325 326 327 329 330 333 338 343 346 348 350 350 349 348 347 346 345 344 343 343 342 343 343 344 344 342 341
311 313 315 317 318 319 321 322 323 324 325 325 326 326 326 326 326 326 327 330 334 340 347 351 353 355 354 353 353 352 350 348 346 344 342 341 340 340 340 340 340 341 341
313 315 316 318 319 321 322 323 324 324 325 326 326 327 327 328 328 329 331 336 343 350 356 359 359 359 359 359 357 355 352 350 349 347 345 343 342 341 341 339 337 337 339
315 316 318 319 321 322 322 323 324 325 326 326 327 327 328 329 330 333 338 346 355 2 5 6 6 6 5 3 1 359 356 353 351 350 350 349 348 346 344 341 338 337 337
316 318 319 320 321 322 323 324 325 326 326 327 327 327 328 329 331 335 345 357 8 13 13 13 11 9 8 7 6 5 3 0 358 357 357 357 357 355 353 351 347 344 339
318 319 320 321 322 323 323 324 325 325 326 327 327 327 327 328 331 342 360 14 23 22 20 18 15 13 11 9 9 8 8 7 6 6 6 5 3 1 360 358 356 353 350
319 320 321 322 322 323 324 325 325 325 326 326 326 326 326 328 337 4 28 41 38 32 29 25 22 19 15 14 13 13 13 13 14 14 13 11 10 9 8 7 6 6 6
320 321 321 322 322 323 324 325 325 325 325 325 325 325 324 329 17 61 69 65 52 45 38 32 27 22 20 19 18 17 17 18 19 20 20 19 18 18 17 17 18 20 25
Height
5710 5708 5706 5704 5701 5698 5695 5691 5687 5683 5678 5672 5667 5661 5654 5647 5639 5631 5622 5613 5603 5593 5582 5572 5560 5548 5535 5521 5505 5489 5471 5450 5434 5433 5423 5407 5390 5374 5360 5344 5331 5322 5317
5702 5700 5698 5696 5693 5689 5686 5682 5677 5672 5667 5662 5655 5649 5642 5634 5625 5617 5608 5598 5587 5577 5565 5553 5540 5526 5512 5496 5479 5461 5443 5423 5402 5391 5389 5377 5363 5348 5336 5324 5312 5302 5294
5694 5692 5690 5687 5684 5680 5676 5672 5667 5662 5656 5650 5643 5636 5628 5620 5611 5602 5593 5582 5571 5558 5545 5532 5518 5503 5487 5470 5452 5433 5414 5396 5377 5360 5354 5348 5337 5325 5313 5305 5295 5286 5278
5686 5684 5682 5679 5675 5671 5667 5662 5657 5651 5645 5638 5631 5623 5615 5606 5597 5587 5577 5566 5553 5540 5525 5510 5493 5476 5458 5440 5422 5404 5386 5370 5355 5340 5330 5323 5315 5304 5294 5286 5281 5274 5266
5678 5676 5673 5669 5666 5661 5657 5651 5646 5640 5633 5626 5618 5609 5601 5592 5582 5572 5561 5549 5535 5521 5505 5487 5469 5450 5430 5410 5390 5374 5359 5345 5333 5321 5312 5304 5296 5288 5280 5274 5268 5264 5257
5670 5667 5664 5660 5656 5651 5646 5641 5635 5628 5621 5613 5605 5596 5587 5577 5567 5555 5543 5531 5515 5499 5482 5464 5445 5425 5406 5387 5369 5352 5337 5324 5313 5304 5296 5289 5282 5276 5270 5264 5258 5253 5248
5661 5658 5654 5650 5646 5641 5636 5630 5624 5616 5608 5600 5591 5582 5573 5562 5551 5539 5526 5511 5495 5476 5457 5438 5420 5400 5381 5365 5350 5337 5324 5311 5299 5291 5284 5278 5273 5268 5262 5257 5251 5244 5238
5651 5648 5645 5641 5636 5631 5625 5619 5612 5604 5596 5587 5578 5568 5558 5547 5535 5522 5508 5492 5474 5454 5433 5412 5394 5377 5360 5345 5333 5322 5310 5300 5290 5282 5276 5270 5265 5260 5254 5250 5244 5239 5232
5643 5639 5635 5631 5626 5621 5615 5608 5600 5592 5583 5574 5564 5554 5543 5531 5517 5503 5488 5472 5454 5434 5413 5391 5371 5356 5343 5328 5317 5308 5299 5291 5283 5275 5269 5264 5259 5254 5248 5244 5239 5234 5228
5634 5630 5626 5621 5616 5610 5603 5596 5588 5580 5571 5561 5551 5539 5527 5514 5499 5483 5465 5450 5434 5417 5397 5376 5356 5340 5327 5315 5305 5298 5291 5285 5279 5273 5267 5261 5256 5250 5244 5239 5234 5229 5223
5625 5621 5617 5612 5606 5599 5592 5584 5577 5569 5560 5550 5539 5526 5511 5496 5480 5462 5443 5423 5406 5391 5375 5360 5344 5328 5316 5306 5298 5291 5284 5279 5274 5269 5264 5259 5254 5248 5242 5236 5230 5224 5219
5616 5612 5607 5601 5595 5588 5581 5573 5565 5556 5547 5536 5525 5511 5495 5478 5461 5443 5424 5403 5384 5369 5356 5343 5330 5318 5308 5299 5292 5286 5281 5275 5271 5266 5261 5256 5252 5247 5241 5235 5228 5222 5216
5607 5602 5596 5590 5584 5577 5569 5561 5553 5543 5534 5523 5511 5497 5481 5463 5444 5425 5407 5388 5370 5356 5343 5330 5319 5310 5302 5295 5289 5283 5278 5273 5269 5264 5259 5254 5249 5244 5239 5234 5227 5221 5214
5597 5592 5586 5579 5572 5565 5557 5549 5540 5530 5520 5508 5495 5481 5465 5447 5427 5410 5392 5375 5360 5346 5334 5323 5313 5304 5297 5291 5286 5281 5276 5271 5267 5262 5257 5252 5247 5242 5237 5232 5227 5221 5215
5587 5581 5575 5569 5562 5554 5546 5536 5527 5515 5503 5491 5477 5462 5446 5430 5410 5391 5375 5361 5348 5336 5326 5317 5309 5302 5295 5289 5284 5279 5274 5269 5264 5259 5255 5250 5244 5239 5234 5229 5224 5219 5214
5577 5571 5565 5558 5551 5543 5534 5524 5511 5500 5486 5471 5456 5441 5424 5407 5391 5377 5362 5348 5337 5327 5319 5312 5305 5299 5294 5288 5283 5278 5273 5268 5263 5258 5252 5247 5242 5237 5232 5227 5222 5218 5213
5567 5561 5554 5547 5540 5531 5522 5513 5501 5487 5470 5453 5438 5422 5405 5389 5375 5363 5351 5339 5329 5321 5314 5308 5302 5297 5292 5287 5282 5277 5272 5266 5261 5256 5250 5245 5240 5235 5229 5225 5220 5216 5212
5557 5550 5543 5536 5528 5519 5509 5498 5486 5474 5460 5442 5423 5406 5390 5375 5361 5350 5340 5332 5323 5316 5311 5306 5301 5296 5291 5286 5281 5276 5270 5265 5259 5254 5249 5243 5238 5233 5228 5223 5218 5214 5210
5546 5540 5532 5524 5515 5506 5495 5483 5471 5457 5442 5427 5411 5395 5379 5365 5351 5340 5332 5325 5319 5314 5309 5304 5300 5295 5290 5285 5280 5274 5269 5263 5258 5252 5247 5241 5236 5231 5226 5221 5217 5213 5209
5535 5528 5521 5512 5503 5492 5481 5468 5455 5441 5426 5410 5395 5382 5370 5357 5345 5335 5327 5321 5316 5312 5308 5304 5299 5295 5290 5284 5279 5273 5267 5262 5256 5250 5244 5239 5234 5229 5224 5220 5215 5212 5208
5524 5517 5509 5500 5489 5478 5466 5453 5439 5425 5410 5395 5381 5368 5357 5347 5338 5330 5324 5319 5315 5311 5308 5304 5300 5295 5290 5284 5278 5272 5266 5260 5254 5248 5242 5237 5231 5226 5222 5217 5213 5210 5206
5513 5505 5496 5486 5475 5463 5451 5437 5424 5409 5395 5382 5370 5358 5347 5339 5332 5327 5322 5319 5315 5312 5308 5305 5300 5296 5290 5285 5279 5273 5266 5260 5253 5247 5241 5235 5229 5224 5220 5215 5211 5207 5205
5501 5493 5483 5472 5461 5448 5435 5422 5408 5394 5382 5370 5360 5350 5342 5335 5329 5325 5322 5319 5316 5313 5309 5305 5301 5296 5291 5285 5279 5273 5267 5260 5253 5247 5240 5234 5229 5224 5218 5213 5209 5205 5203
5489 5480 5469 5458 5446 5434 5420 5407 5393 5381 5370 5360 5351 5343 5336 5331 5327 5324 5322 5319 5317 5314 5311 5307 5303 5298 5292 5286 5280 5274 5267 5260 5254 5247 5241 5235 5229 5223 5218 5212 5208 5204 5201
5476 5466 5455 5443 5432 5419 5406 5392 5380 5369 5359 5351 5343 5337 5332 5329 5326 5324 5323 5321 5318 5316 5312 5309 5304 5299 5294 5288 5282 5276 5269 5262 5255 5249 5243 5236 5230 5224 5218 5212 5207 5203 5200
5462 5452 5440 5429 5417 5404 5391 5379 5368 5358 5350 5342 5336 5332 5329 5327 5326 5325 5324 5322 5320 5318 5315 5311 5307 5302 5296 5291 5285 5278 5272 5265 5258 5252 5245 5239 5232 5226 5219 5214 5208 5204 5200